| time (UTC) | temp F | wind direction | speed MPH | gust MPH | rain 1hr in | rain 24hr in | rain mn in | humidity % | barometer mb |
| 20260504234546 | 78 | 286 | 3.0 | 5.0 | 0.00 | 0.00 | 0.00 | 68 | 1013.7 |
| 20260504234043 | 78 | 224 | 2.0 | 3.0 | 0.00 | 0.00 | 0.00 | 67 | 1013.8 |
| 20260504233538 | 79 | 179 | 3.0 | 8.0 | 0.00 | 0.00 | 0.00 | 67 | 1014.1 |
| 20260504233035 | 79 | 164 | 3.0 | 5.0 | 0.00 | 0.00 | 0.00 | 67 | 1013.9 |
| 20260504232532 | 79 | 315 | 0.0 | 2.0 | 0.00 | 0.00 | 0.00 | 67 | 1013.9 |
| 20260504232030 | 79 | 176 | 1.0 | 3.0 | 0.00 | 0.00 | 0.00 | 66 | 1013.9 |
| 20260504231526 | 79 | 329 | 1.0 | 2.0 | 0.00 | 0.00 | 0.00 | 66 | 1014.2 |
| 20260504231022 | 80 | 201 | 4.0 | 5.0 | 0.00 | 0.00 | 0.00 | 65 | 1013.9 |
| 20260504230519 | 80 | 149 | 2.0 | 7.0 | 0.00 | 0.00 | 0.00 | 65 | 1014.1 |
| 20260504230018 | 80 | 148 | 2.0 | 5.0 | 0.00 | 0.00 | 0.00 | 64 | 1014.1 |
| 20260504225515 | 80 | 253 | 1.0 | 5.0 | 0.00 | 0.00 | 0.00 | 64 | 1014.1 |
| 20260504225012 | 80 | 174 | 3.0 | 5.0 | 0.00 | 0.00 | 0.00 | 64 | 1014.0 |
| 20260504224508 | 80 | 190 | 1.0 | 5.0 | 0.00 | 0.00 | 0.00 | 63 | 1014.1 |
| 20260504224005 | 80 | 57 | 3.0 | 6.0 | 0.00 | 0.00 | 0.00 | 63 | 1014.3 |
| 20260504223502 | 80 | 230 | 1.0 | 5.0 | 0.00 | 0.00 | 0.00 | 63 | 1014.3 |
| 20260504222957 | 80 | 3 | 1.0 | 3.0 | 0.00 | 0.00 | 0.00 | 63 | 1014.4 |
| 20260504222455 | 80 | 273 | 1.0 | 5.0 | 0.00 | 0.00 | 0.00 | 63 | 1014.3 |
| 20260504221952 | 80 | 150 | 2.0 | 8.0 | 0.00 | 0.00 | 0.00 | 62 | 1014.5 |
| 20260504221449 | 81 | 295 | 1.0 | 8.0 | 0.00 | 0.00 | 0.00 | 61 | 1014.6 |
| 20260504220946 | 81 | 190 | 2.0 | 5.0 | 0.00 | 0.00 | 0.00 | 61 | 1014.4 |
| 20260504220443 | 81 | 248 | 3.0 | 5.0 | 0.00 | 0.00 | 0.00 | 61 | 1014.7 |
| 20260504215940 | 81 | 224 | 3.0 | 6.0 | 0.00 | 0.00 | 0.00 | 61 | 1014.6 |
| 20260504215436 | 82 | 330 | 1.0 | 5.0 | 0.00 | 0.00 | 0.00 | 60 | 1014.7 |
| 20260504214933 | 82 | 145 | 2.0 | 2.0 | 0.00 | 0.00 | 0.00 | 58 | 1014.7 |
| 20260504214429 | 82 | 13 | 1.0 | 3.0 | 0.00 | 0.00 | 0.00 | 59 | 1014.8 |
| 20260504213926 | 83 | 343 | 2.0 | 3.0 | 0.00 | 0.00 | 0.00 | 58 | 1014.8 |
| 20260504213422 | 82 | 284 | 1.0 | 3.0 | 0.00 | 0.00 | 0.00 | 58 | 1014.7 |
| 20260504212920 | 82 | 85 | 1.0 | 2.0 | 0.00 | 0.00 | 0.00 | 58 | 1014.9 |
| 20260504212415 | 82 | 148 | 1.0 | 3.0 | 0.00 | 0.00 | 0.00 | 58 | 1014.9 |
| 20260504211914 | 83 | 154 | 2.0 | 2.0 | 0.00 | 0.00 | 0.00 | 58 | 1014.9 |
| 20260504211409 | 83 | 28 | 0.0 | 3.0 | 0.00 | 0.00 | 0.00 | 57 | 1015.1 |
| 20260504210907 | 84 | 275 | 1.0 | 3.0 | 0.00 | 0.00 | 0.00 | 56 | 1015.2 |
| 20260504210404 | 85 | 221 | 1.0 | 5.0 | 0.00 | 0.00 | 0.00 | 55 | 1015.2 |
| 20260504205901 | 85 | 194 | 4.0 | 6.0 | 0.00 | 0.00 | 0.00 | 54 | 1015.3 |
| 20260504205359 | 84 | 299 | 1.0 | 2.0 | 0.00 | 0.00 | 0.00 | 55 | 1015.1 |
| 20260504204857 | 84 | 304 | 0.0 | 1.0 | 0.00 | 0.00 | 0.00 | 56 | 1015.3 |
| 20260504204355 | 83 | 260 | 0.0 | 2.0 | 0.00 | 0.00 | 0.00 | 55 | 1015.6 |
| 20260504203854 | 84 | 314 | 1.0 | 3.0 | 0.00 | 0.00 | 0.00 | 54 | 1015.7 |
| 20260504203350 | 84 | 253 | 0.0 | 6.0 | 0.00 | 0.00 | 0.00 | 55 | 1015.6 |
| 20260504202846 | 84 | 193 | 1.0 | 6.0 | 0.00 | 0.00 | 0.00 | 56 | 1015.5 |
| 20260504202344 | 84 | 289 | 1.0 | 2.0 | 0.00 | 0.00 | 0.00 | 55 | 1015.7 |
| 20260504201840 | 83 | 250 | 1.0 | 3.0 | 0.00 | 0.00 | 0.00 | 57 | 1015.8 |
| 20260504201337 | 83 | 76 | 2.0 | 3.0 | 0.00 | 0.00 | 0.00 | 57 | 1016.0 |
| 20260504200835 | 83 | 319 | 0.0 | 2.0 | 0.00 | 0.00 | 0.00 | 57 | 1016.3 |
| 20260504200331 | 84 | 286 | 1.0 | 2.0 | 0.00 | 0.00 | 0.00 | 55 | 1016.3 |
| 20260504195828 | 86 | 315 | 2.0 | 5.0 | 0.00 | 0.00 | 0.00 | 53 | 1016.2 |
| 20260504195323 | 84 | 255 | 2.0 | 2.0 | 0.00 | 0.00 | 0.00 | 53 | 1016.5 |
| 20260504194820 | 82 | 316 | 1.0 | 3.0 | 0.00 | 0.00 | 0.00 | 56 | 1016.5 |
| 20260504194316 | 84 | 148 | 3.0 | 3.0 | 0.00 | 0.00 | 0.00 | 54 | 1016.5 |
| 20260504193812 | 83 | 170 | 5.0 | 7.0 | 0.00 | 0.00 | 0.00 | 54 | 1016.4 |
| 20260504193310 | 82 | 215 | 2.0 | 7.0 | 0.00 | 0.00 | 0.00 | 55 | 1016.7 |
| 20260504192808 | 82 | 263 | 3.0 | 8.0 | 0.00 | 0.00 | 0.00 | 57 | 1016.6 |
| 20260504192306 | 82 | 270 | 1.0 | 6.0 | 0.00 | 0.00 | 0.00 | 57 | 1017.1 |
| 20260504191805 | 83 | 242 | 0.0 | 1.0 | 0.00 | 0.00 | 0.00 | 53 | 1016.9 |
| 20260504191302 | 82 | 303 | 1.0 | 2.0 | 0.00 | 0.00 | 0.00 | 56 | 1017.2 |
| 20260504190757 | 82 | 203 | 1.0 | 2.0 | 0.00 | 0.00 | 0.00 | 56 | 1017.0 |
| 20260504190253 | 82 | 175 | 1.0 | 6.0 | 0.00 | 0.00 | 0.00 | 56 | 1017.1 |
| 20260504185750 | 80 | 249 | 3.0 | 6.0 | 0.00 | 0.00 | 0.00 | 56 | 1017.2 |
| 20260504185247 | 81 | 82 | 4.0 | 5.0 | 0.00 | 0.00 | 0.00 | 58 | 1017.2 |
| 20260504184743 | 80 | 313 | 0.0 | 10.0 | 0.00 | 0.00 | 0.00 | 58 | 1017.1 |
| 20260504184239 | 81 | 234 | 2.0 | 2.0 | 0.00 | 0.00 | 0.00 | 57 | 1017.4 |
| 20260504183735 | 82 | 273 | 4.0 | 6.0 | 0.00 | 0.00 | 0.00 | 55 | 1017.4 |
| 20260504183232 | 83 | 263 | 2.0 | 5.0 | 0.00 | 0.00 | 0.00 | 54 | 1017.4 |
| 20260504182730 | 83 | 279 | 1.0 | 6.0 | 0.00 | 0.00 | 0.00 | 54 | 1017.2 |
| 20260504182227 | 82 | 202 | 2.0 | 2.0 | 0.00 | 0.00 | 0.00 | 56 | 1017.2 |
| 20260504181724 | 81 | 277 | 1.0 | 3.0 | 0.00 | 0.00 | 0.00 | 57 | 1017.3 |
| 20260504181222 | 81 | 168 | 4.0 | 6.0 | 0.00 | 0.00 | 0.00 | 55 | 1017.6 |
| 20260504180721 | 81 | 332 | 3.0 | 5.0 | 0.00 | 0.00 | 0.00 | 55 | 1017.7 |
| 20260504180219 | 80 | 152 | 0.0 | 3.0 | 0.00 | 0.00 | 0.00 | 58 | 1017.5 |
| 20260504175716 | 80 | 286 | 2.0 | 5.0 | 0.00 | 0.00 | 0.00 | 58 | 1017.9 |
| 20260504175213 | 80 | 294 | 1.0 | 3.0 | 0.00 | 0.00 | 0.00 | 58 | 1017.9 |
| 20260504174711 | 80 | 150 | 2.0 | 7.0 | 0.00 | 0.00 | 0.00 | 59 | 1017.9 |
| 20260504174209 | 80 | 266 | 2.0 | 5.0 | 0.00 | 0.00 | 0.00 | 57 | 1018.0 |
| 20260504173705 | 79 | 300 | 1.0 | 5.0 | 0.00 | 0.00 | 0.00 | 59 | 1017.9 |
| 20260504173202 | 80 | 43 | 2.0 | 7.0 | 0.00 | 0.00 | 0.00 | 59 | 1018.1 |
| 20260504172658 | 80 | 196 | 1.0 | 2.0 | 0.00 | 0.00 | 0.00 | 59 | 1018.2 |
| 20260504172155 | 81 | 350 | 2.0 | 3.0 | 0.00 | 0.00 | 0.00 | 58 | 1018.2 |
| 20260504171651 | 80 | 282 | 1.0 | 2.0 | 0.00 | 0.00 | 0.00 | 57 | 1018.4 |
| 20260504171148 | 80 | 213 | 7.0 | 10.0 | 0.00 | 0.00 | 0.00 | 57 | 1018.4 |
| 20260504170645 | 80 | 299 | 0.0 | 5.0 | 0.00 | 0.00 | 0.00 | 56 | 1018.4 |
| 20260504170143 | 79 | 319 | 0.0 | 3.0 | 0.00 | 0.00 | 0.00 | 60 | 1018.4 |
| 20260504151028 | 73 | 251 | 2.0 | 9.0 | 0.00 | 0.00 | 0.00 | 67 | 1019.4 |
| 20260504150525 | 73 | 318 | 4.0 | 8.0 | 0.00 | 0.00 | 0.00 | 67 | 1019.5 |
| 20260504140951 | 70 | 211 | 1.0 | 2.0 | 0.00 | 0.00 | 0.00 | 69 | 1019.7 |
| 20260504140447 | 69 | 220 | 1.0 | 2.0 | 0.00 | 0.00 | 0.00 | 69 | 1019.2 |
| 20260504130412 | 62 | 200 | 0.0 | 0.0 | 0.00 | 0.00 | 0.00 | 84 | 1019.5 |
| 20260504110259 | 58 | 340 | 0.0 | 0.0 | 0.00 | 0.00 | 0.00 | 87 | 1018.8 |
| 20260504100217 | 58 | 342 | 0.0 | 0.0 | 0.00 | 0.00 | 0.00 | 84 | 1019.1 |
| 20260504090140 | 60 | 335 | 0.0 | 0.0 | 0.00 | 0.00 | 0.00 | 83 | 1019.6 |
| 20260504081610 | 60 | 335 | 0.0 | 0.0 | 0.00 | 0.00 | 0.00 | 81 | 1019.8 |
| 20260504081106 | 60 | 334 | 0.0 | 0.0 | 0.00 | 0.00 | 0.00 | 81 | 1019.9 |
| 20260504080603 | 61 | 324 | 0.0 | 0.0 | 0.00 | 0.00 | 0.00 | 80 | 1019.9 |
| 20260504050415 | 65 | 302 | 0.0 | 0.0 | 0.00 | 0.00 | 0.00 | 70 | 1021.7 |
| 20260504045912 | 65 | 228 | 0.0 | 1.0 | 0.00 | 0.00 | 0.00 | 68 | 1021.6 |
| 20260504045408 | 65 | 298 | 0.0 | 0.0 | 0.00 | 0.00 | 0.00 | 69 | 1021.8 |
| 20260504044904 | 65 | 292 | 0.0 | 1.0 | 0.00 | 0.00 | 0.00 | 68 | 1021.9 |
| 20260504044402 | 65 | 320 | 0.0 | 0.0 | 0.00 | 0.00 | 0.00 | 67 | 1021.8 |
| 20260504043859 | 65 | 300 | 0.0 | 0.0 | 0.00 | 0.00 | 0.00 | 67 | 1021.9 |
| 20260504043356 | 65 | 325 | 0.0 | 0.0 | 0.00 | 0.00 | 0.00 | 67 | 1021.6 |
| 20260504042854 | 66 | 303 | 0.0 | 0.0 | 0.00 | 0.00 | 0.00 | 67 | 1021.6 |
| 20260504042350 | 66 | 319 | 0.0 | 0.0 | 0.00 | 0.00 | 0.00 | 66 | 1021.7 |
| 20260504041846 | 66 | 273 | 0.0 | 0.0 | 0.00 | 0.00 | 0.00 | 64 | 1022.0 |
| 20260504041342 | 67 | 238 | 0.0 | 1.0 | 0.00 | 0.00 | 0.00 | 64 | 1021.9 |
| 20260504040838 | 67 | 231 | 0.0 | 1.0 | 0.00 | 0.00 | 0.00 | 64 | 1021.8 |
| 20260504040336 | 66 | 291 | 0.0 | 1.0 | 0.00 | 0.00 | 0.00 | 64 | 1022.0 |
| 20260504035832 | 66 | 321 | 0.0 | 2.0 | 0.00 | 0.00 | 0.00 | 64 | 1021.8 |
| 20260504035330 | 67 | 292 | 0.0 | 0.0 | 0.00 | 0.00 | 0.00 | 65 | 1022.1 |
| 20260504034827 | 67 | 309 | 0.0 | 0.0 | 0.00 | 0.00 | 0.00 | 63 | 1021.8 |
| 20260504034324 | 67 | 288 | 1.0 | 1.0 | 0.00 | 0.00 | 0.00 | 62 | 1022.0 |
| 20260504033821 | 68 | 302 | 0.0 | 0.0 | 0.00 | 0.00 | 0.00 | 61 | 1022.1 |
| 20260504033319 | 68 | 284 | 2.0 | 2.0 | 0.00 | 0.00 | 0.00 | 62 | 1022.1 |
| 20260504032815 | 68 | 253 | 0.0 | 0.0 | 0.00 | 0.00 | 0.00 | 61 | 1021.8 |
| 20260504032313 | 68 | 126 | 1.0 | 1.0 | 0.00 | 0.00 | 0.00 | 59 | 1021.7 |
| 20260504031809 | 68 | 333 | 0.0 | 0.0 | 0.00 | 0.00 | 0.00 | 60 | 1021.6 |
| 20260504031307 | 69 | 160 | 1.0 | 1.0 | 0.00 | 0.00 | 0.00 | 59 | 1021.5 |
| 20260504030803 | 69 | 189 | 0.0 | 1.0 | 0.00 | 0.00 | 0.00 | 59 | 1021.7 |
| 20260504030300 | 69 | 259 | 0.0 | 1.0 | 0.00 | 0.00 | 0.00 | 58 | 1021.5 |
| 20260504025756 | 69 | 275 | 0.0 | 0.0 | 0.00 | 0.00 | 0.00 | 57 | 1021.7 |
| 20260504025253 | 69 | 132 | 0.0 | 1.0 | 0.00 | 0.00 | 0.00 | 57 | 1021.8 |
| 20260504024750 | 70 | 295 | 0.0 | 1.0 | 0.00 | 0.00 | 0.00 | 56 | 1021.7 |
| 20260504024247 | 70 | 290 | 2.0 | 2.0 | 0.00 | 0.00 | 0.00 | 56 | 1021.6 |
| 20260504023744 | 70 | 165 | 0.0 | 1.0 | 0.00 | 0.00 | 0.00 | 56 | 1021.5 |
| 20260504023240 | 70 | 216 | 0.0 | 1.0 | 0.00 | 0.00 | 0.00 | 55 | 1021.7 |
| 20260504022736 | 70 | 328 | 1.0 | 5.0 | 0.00 | 0.00 | 0.00 | 55 | 1021.6 |
| 20260504022232 | 70 | 165 | 3.0 | 5.0 | 0.00 | 0.00 | 0.00 | 54 | 1021.4 |
| 20260504021729 | 71 | 209 | 1.0 | 1.0 | 0.00 | 0.00 | 0.00 | 54 | 1021.4 |
| 20260504021227 | 71 | 151 | 0.0 | 2.0 | 0.00 | 0.00 | 0.00 | 53 | 1021.4 |
| 20260504020723 | 71 | 167 | 1.0 | 3.0 | 0.00 | 0.00 | 0.00 | 53 | 1021.4 |
| 20260504020220 | 71 | 238 | 0.0 | 2.0 | 0.00 | 0.00 | 0.00 | 54 | 1021.4 |
| 20260504015716 | 71 | 264 | 2.0 | 2.0 | 0.00 | 0.00 | 0.00 | 53 | 1021.5 |
| 20260504015213 | 72 | 162 | 0.0 | 1.0 | 0.00 | 0.00 | 0.00 | 53 | 1021.3 |
| 20260504014708 | 72 | 269 | 0.0 | 2.0 | 0.00 | 0.00 | 0.00 | 52 | 1021.5 |
| 20260504014205 | 72 | 155 | 0.0 | 2.0 | 0.00 | 0.00 | 0.00 | 52 | 1021.2 |
| 20260504013703 | 72 | 142 | 1.0 | 2.0 | 0.00 | 0.00 | 0.00 | 51 | 1021.1 |
| 20260504013200 | 72 | 208 | 0.0 | 2.0 | 0.00 | 0.00 | 0.00 | 51 | 1021.1 |
| 20260504012657 | 73 | 167 | 0.0 | 1.0 | 0.00 | 0.00 | 0.00 | 51 | 1021.0 |
| 20260504012155 | 73 | 157 | 1.0 | 1.0 | 0.00 | 0.00 | 0.00 | 50 | 1020.9 |
| 20260504011652 | 73 | 193 | 1.0 | 1.0 | 0.00 | 0.00 | 0.00 | 49 | 1021.0 |
| 20260504011148 | 73 | 178 | 1.0 | 2.0 | 0.00 | 0.00 | 0.00 | 49 | 1020.9 |
| 20260504010644 | 73 | 204 | 0.0 | 2.0 | 0.00 | 0.00 | 0.00 | 49 | 1020.9 |
| 20260504010140 | 74 | 268 | 0.0 | 1.0 | 0.00 | 0.00 | 0.00 | 49 | 1020.8 |
| 20260504005637 | 74 | 230 | 0.0 | 1.0 | 0.00 | 0.00 | 0.00 | 47 | 1020.9 |
| 20260504005133 | 74 | 299 | 1.0 | 1.0 | 0.00 | 0.00 | 0.00 | 47 | 1021.0 |
| 20260504004632 | 74 | 309 | 0.0 | 1.0 | 0.00 | 0.00 | 0.00 | 47 | 1020.9 |
| 20260504004129 | 75 | 170 | 1.0 | 1.0 | 0.00 | 0.00 | 0.00 | 46 | 1020.9 |
| 20260504003625 | 75 | 232 | 0.0 | 1.0 | 0.00 | 0.00 | 0.00 | 45 | 1021.0 |
| 20260504003121 | 75 | 211 | 0.0 | 1.0 | 0.00 | 0.00 | 0.00 | 44 | 1020.9 |
| 20260504002618 | 76 | 241 | 0.0 | 1.0 | 0.00 | 0.00 | 0.00 | 43 | 1020.8 |
| 20260504002116 | 76 | 302 | 1.0 | 1.0 | 0.00 | 0.00 | 0.00 | 43 | 1021.1 |
| 20260504001608 | 77 | 167 | 0.0 | 1.0 | 0.00 | 0.00 | 0.00 | 42 | 1020.9 |
| 20260504001104 | 77 | 153 | 1.0 | 2.0 | 0.00 | 0.00 | 0.00 | 40 | 1020.9 |
| 20260504000601 | 78 | 287 | 0.0 | 1.0 | 0.00 | 0.00 | 0.00 | 39 | 1021.0 |
| 20260504000059 | 78 | 147 | 1.0 | 2.0 | 0.00 | 0.00 | 0.00 | 40 | 1021.2 |
| 20260503235556 | 79 | 73 | 0.0 | 2.0 | 0.00 | 0.00 | 0.00 | 38 | 1021.2 |
| 20260503235053 | 81 | 331 | 1.0 | 2.0 | 0.00 | 0.00 | 0.00 | 38 | 1021.1 |